Regional Weather Roundup
Issued by NWS

Home | Current Version | Previous Version | Text Only | Print | Product List | Glossary On
Versions: 1 2 3 4 5 6 7 8 9 10 11 12 13 14 15 16 17 18 19 20 21 22 23 24 25 26 27 28 29 30 31 32 33 34 35 36 37 38 39 40 41 42 43 44 45 46 47 48 49 50
000
ASUS43 KLMK 281510
RWRKY
KENTUCKY REGIONAL WEATHER ROUNDUP
NATIONAL WEATHER SERVICE LOUISVILLE KY
1100 AM EDT SUN MAY 28 2017

NOTE "FAIR" INDICATES FEW OR NO CLOUDS BELOW 12,000 FEET
WITH NO SIGNIFICANT WEATHER AND/OR OBSTRUCTIONS TO VISIBILITY.

KYZ001>023-026-027-061>063-070>075-281600-
WESTERN AND SOUTH CENTRAL KENTUCKY

CITY           SKY/WX    TMP DP  RH WIND       PRES   REMARKS
PADUCAH        PTSUNNY   69  62  78 W15G24    29.86S
HENDERSON      CLOUDY    69  63  81 SW15G24   29.83F
OWENSBORO      CLOUDY    69  63  81 SW17      29.84F
HOPKINSVILLE   PTSUNNY   69  63  80 W14       29.85F
BOWLING GREEN  CLOUDY    69  64  84 SW13      29.88S
GLASGOW        CLOUDY    68  62  79 SW10G16   29.88F
$$

KYZ024-025-028>034-038-045-046-053-281600-
NORTH CENTRAL KENTUCKY

CITY           SKY/WX    TMP DP  RH WIND       PRES   REMARKS
LOUISVILLE/SDF CLOUDY    71  62  73 W18       29.82S
LOUISVILLE/LOU PTSUNNY   71  63  75 SW13G20   29.82S
FORT KNOX      CLOUDY    69  62  79 SW14      29.83R
$$

KYZ035>037-039>044-047>052-055>060-089>105-281600-
NORTHEAST KENTUCKY

CITY           SKY/WX    TMP DP  RH WIND       PRES   REMARKS
LEXINGTON      CLOUDY    68  61  78 SW13      29.85F
COVINGTON      CLOUDY    70  62  76 S13       29.79F
FRANKFORT      PTSUNNY   70  61  73 SW13      29.82S
$$

KYZ054-064>069-076>088-106>120-281600-
SOUTHEAST KENTUCKY

CITY           SKY/WX    TMP DP  RH WIND       PRES   REMARKS
JACKSON        CLOUDY    69  63  81 CALM      29.89F
LONDON         CLOUDY    65  60  84 SW5       29.91R
SOMERSET       CLOUDY    64  63  94 W13       29.93R
MIDDLESBORO    CLOUDY    67  62  83 CALM      29.93S
MONTICELLO     CLOUDY    68  63  84 W16       29.93F
$$




USA.gov is the U.S. government's official web portal to all federal, state and local government web resources and services.